Regional Weather Roundup
Issued by NWS

Home | Current Version | Previous Version | Graphics & Text | Print | Product List | Glossary On
Versions: 1 2 3 4 5 6 7 8 9 10 11 12 13 14 15 16 17 18 19 20 21 22 23 24 25 26 27 28 29 30 31 32 33 34 35 36 37 38 39 40 41 42 43 44 45 46 47 48 49 50
000
ASUS45 KBOU 180207
RWRCO

WEATHER ROUNDUP FOR COLORADO
NATIONAL WEATHER SERVICE DENVER/BOULDER CO
800 PM MDT TUE OCT 17 2017

NOTE: "FAIR" INDICATES FEW OR NO CLOUDS BELOW 12000 FEET WITH NO
SIGNIFICANT WEATHER AND/OR OBSTRUCTIONS TO VISIBILITY.

COZ001>005-013-030-031-180300-
...NORTHWEST COLORADO...

CITY           SKY/WX    TMP DP  RH WIND       PRES   REMARKS
CRAIG          FAIR      42  19  39 E3        30.21R
HAYDEN         FAIR      47  15  27 S3        30.25R
MEEKER         FAIR      44  19  36 E5        30.23R
RABBIT EARS PA FAIR      41   9  26 W6        30.44S
STEAMBOAT SPGS FAIR      49  13  23 SE7       30.24S
WALDEN         FAIR      41   7  24 SE6       30.31S
$$

COZ006>008-011-180300-
...WEST CENTRAL VALLEYS...

CITY           SKY/WX    TMP DP  RH WIND       PRES   REMARKS
GRAND JUNCTION FAIR      52  13  21 CALM      30.19R
MONTROSE       FAIR      48  21  34 SE9       30.26R
EAGLE          FAIR      52  10  18 E6        30.27R
RIFLE          FAIR      52  19  27 VRB6      30.21R
DELTA          FAIR      54  17  23 N6        30.21R
NUCLA          FAIR      55   1  11 E5        30.27R
$$

COZ017>023-064>068-180300-
...SOUTHWEST COLORADO...

CITY           SKY/WX    TMP DP  RH WIND       PRES   REMARKS
DURANGO        FAIR      57   5  12 SW6       30.27R
CORTEZ         FAIR      46  11  24 NE10      30.25R
PAGOSA SPRINGS FAIR      49  14  24 CALM      30.35R
TELLURIDE      NOT AVBL
WOLF CREEK PAS FAIR      37  10  32 SW14      30.60S
$$

COZ009-010-012-014-032>034-037-058>063-180300-
...CENTRAL COLORADO...

CITY           SKY/WX    TMP DP  RH WIND       PRES   REMARKS
ASPEN          FAIR      45  15  30 SW10      30.32R
BUENA VISTA    FAIR      51   8  17 NW9       30.30R
COPPER MTN     FAIR      41  -4  15 W6        30.54S
BERTHOUD PASS  FAIR      36  28  75 W16G23    30.54S
COTTONWOOD PAS FAIR      55  -2   9 W13G21    30.41S
GUNNISON       FAIR      46  12  25 CALM      30.32R
KREMMLING      FAIR      48  10  21 CALM      30.29R
LEADVILLE      FAIR      37   5  26 NE9       30.41R
MONARCH PASS   FAIR      39   3  22 SW15      30.65S
SALIDA         NOT AVBL
SUNLIGHT       FAIR      39   1  20 SW8       30.51R
WILKERSON PASS FAIR      45   0  15 NW8       30.52S
$$

COZ069>075-180300-
...SAN LUIS VALLEY/SANGRE DE CRISTO MOUNTAINS...

CITY           SKY/WX    TMP DP  RH WIND       PRES   REMARKS
ALAMOSA        FAIR      47  10  22 SE5       30.29R
DEL NORTE      FAIR      47  19  32 W9        30.33R
LA VETA PASS   FAIR      46   3  17 SW21G26   30.54S
SAGUACHE       FAIR      43   9  24 N7        30.32R
$$

COZ035-036-038>040-180300-
...NORTHERN COLORADO FRONT RANGE...

CITY           SKY/WX    TMP DP  RH WIND       PRES   REMARKS
DENVER INTL AP FAIR      57  16  20 S12       30.10S
DMNS CITY PARK   N/A     60  20  20 SE7       30.11S
AURORA         PTCLDY    53  18  25 S9        30.13S
FRONT RANGE AP MOCLDY    54  25  32 NE9       30.12S
ERIE MUNI ARPT FAIR      52  23  33 S7        30.14S
BOULDER MUN AP FAIR      64  18  16 CALM      30.10S
CENTENNIAL     FAIR      56  18  22 S6        30.14R
BROOMFIELD     NOT AVBL
FORT COLLINS   FAIR      63  26  24 S5        30.09S
LONGMONT       FAIR      54  30  39 SW6       30.11S
$$

COZ041-046-047-076>085-087-088-180300-
...PIKES PEAK/PALMER DIVIDE AND SOUTHERN FOOTHILLS...

CITY           SKY/WX    TMP DP  RH WIND       PRES   REMARKS
COLO. SPRINGS  FAIR      61  14  16 W3        30.19R
A. F. ACADEMY  FAIR      42  20  40 N9        30.20R
SCHRIEVER AFB  FAIR      56  16  21 SE3       30.19R
CHEYENNE MTN   FAIR      62   6  11 SW7       30.17S
ELLICOTT       FAIR     N/A N/A N/A S9        30.17S
FALCON         FAIR      48  15  26 W6        30.23S
FORT CARSON    FAIR      61  13  15 W7        30.16R
LIMON          FAIR      39  27  62 N7        30.14R
MONUMENT HILL  FAIR      45  19  36 S9        30.24S
CANON CITY     CLEAR     57  19  23 N8        30.14R
WALSENBURG     FAIR      50  21  32 SW9       30.17R
TRINIDAD       FAIR      50  30  46 W5        30.16R
$$

COZ042>045-048>051-090-091-180300-
...NORTHEAST COLORADO...

CITY           SKY/WX    TMP DP  RH WIND       PRES   REMARKS
GREELEY ARPT   FAIR      55  28  35 SW5       30.07S
AKRON          FAIR      57  18  21 S7        30.06S
BURLINGTON     FAIR      53  28  38 S13       30.07S
WRAY           FAIR      63  21  20 CALM      30.03R
YUMA           FAIR      45  28  53 SW7       30.04S
STERLING       FAIR      50  27  40 W3        30.00S
HOLYOKE        FAIR      59  28  31 S10       30.00F
FORT MORGAN    FAIR      65   8  10 SW3       30.06S
$$

COZ086-089-092>099-180300-
...SOUTHEAST COLORADO...

CITY           SKY/WX    TMP DP  RH WIND       PRES   REMARKS
PUEBLO         FAIR      59  23  25 E10       30.09R
LA JUNTA       FAIR      61  29  29 E5        30.07R
LAMAR          FAIR      49  28  44 CALM      30.03R
SPRINGFIELD      N/A     50  34  54 W3        30.09R
$$



USA.gov is the U.S. government's official web portal to all federal, state and local government web resources and services.